Change the Weather History Date:

Saturday, August 2, 2014

  Actual Average Record
Temperature  
Mean Temperature 71 °F 74 °F  
Max Temperature 81 °F 85 °F 103 °F (1991)
Min Temperature 60 °F 63 °F 51 °F (1992)
Degree Days  
Heating Degree Days 0 0  
Month to date heating degree days 0 0  
Since 1 June heating degree days 5 25  
Since 1 July heating degree days 3 1  
Cooling Degree Days 6 9  
Month to date cooling degree days 11 18  
Year to date cooling degree days 629 561  
Since 1 June cooling degree days 548 504  
Growing Degree Days 21 (Base 50)    
Moisture  
Dew Point 60 °F    
Average Humidity 67    
Maximum Humidity 84    
Minimum Humidity 49    
Precipitation  
Precipitation 0.00 in 0.11 in 3.00 in (1946)
Month to date precipitation T 0.22  
Year to date precipitation 22.24 23.38  
Sea Level Pressure  
Sea Level Pressure 30.12 in    
Wind  
Wind Speed 4 mph (SE)    
Max Wind Speed 10 mph    
Max Gust Speed 14 mph    
Visibility 9 miles    
Events      
T = Trace of Precipitation, MM = Missing Value Source: NWS Daily Summary

Daily Weather History Graph

Daily Weather History Graph

Search for Another Location

Airport or City:

Trip Planner

Search our weather history database for the weather conditions in past years. The results will help you decide how hot, cold, wet, or windy it might be!

Date:

Astronomy

Aug. 02, 2014 Rise Set
Actual Time 6:12 AM EDT 8:23 PM EDT
Civil Twilight 5:42 AM EDT 8:52 PM EDT
Nautical Twilight 5:06 AM EDT 9:29 PM EDT
Astronomical Twilight 4:26 AM EDT 10:09 PM EDT
Moon 12:30 PM EDT (8/2) 11:42 PM EDT (8/2)
Length of Visible Light 15h 10m
Length of Day
14h 10m
Waxing Crescent, 36% of the Moon is Illuminated
Aug 2
Waxing Crescent
Aug 3
First Quarter
Aug 10
Full
Aug 17
Last Quarter
Aug 25
New

Hourly Weather History & Observations

Time (EDT) Temp. Heat Index Dew Point Humidity Pressure Visibility Wind Dir Wind Speed Gust Speed Precip Events Conditions
12:53 AM 68.0 °F - 62.1 °F 81% 30.17 in 9.0 mi SSE 3.5 mph - N/A   Partly Cloudy
1:53 AM 68.0 °F - 60.1 °F 76% 30.16 in 9.0 mi South 5.8 mph - N/A   Scattered Clouds
2:53 AM 66.0 °F - 57.0 °F 73% 30.15 in 10.0 mi South 3.5 mph - N/A   Mostly Cloudy
4:53 AM 62.1 °F - 57.0 °F 84% 30.13 in 7.0 mi Calm Calm - N/A   Mostly Cloudy
5:53 AM 62.1 °F - 57.0 °F 84% 30.14 in 8.0 mi NNW 3.5 mph - N/A   Partly Cloudy
6:53 AM 62.1 °F - 57.9 °F 86% 30.15 in 5.0 mi Calm Calm - N/A   Overcast
7:53 AM 64.9 °F - 57.9 °F 78% 30.16 in 7.0 mi Calm Calm - N/A   Partly Cloudy
8:53 AM 71.1 °F - 57.9 °F 63% 30.17 in 8.0 mi Calm Calm - N/A   Clear
9:53 AM 73.0 °F - 57.0 °F 57% 30.16 in 10.0 mi Calm Calm - N/A   Mostly Cloudy
10:53 AM 75.0 °F - 57.0 °F 53% 30.16 in 10.0 mi ENE 6.9 mph - N/A   Scattered Clouds
11:53 AM 77.0 °F - 59.0 °F 54% 30.15 in 10.0 mi NNE 6.9 mph - N/A   Partly Cloudy
12:53 PM 78.1 °F - 60.1 °F 54% 30.14 in 10.0 mi East 6.9 mph - N/A   Partly Cloudy
1:53 PM 80.1 °F 80.7 °F 59.0 °F 48% 30.12 in 10.0 mi Variable 3.5 mph - N/A   Scattered Clouds
2:53 PM 79.0 °F - 60.1 °F 52% 30.11 in 10.0 mi Variable 4.6 mph - N/A   Mostly Cloudy
3:53 PM 78.1 °F - 61.0 °F 56% 30.09 in 10.0 mi Variable 5.8 mph - N/A   Overcast
4:53 PM 78.1 °F - 62.1 °F 58% 30.08 in 10.0 mi East 5.8 mph - N/A   Overcast
5:53 PM 79.0 °F - 62.1 °F 56% 30.08 in 10.0 mi SSE 9.2 mph - N/A   Partly Cloudy
6:53 PM 77.0 °F - 63.0 °F 62% 30.06 in 10.0 mi Variable 3.5 mph - N/A   Scattered Clouds
7:53 PM 75.0 °F - 63.0 °F 66% 30.07 in 10.0 mi SE 5.8 mph - N/A   Clear
8:53 PM 72.0 °F - 63.0 °F 73% 30.08 in 10.0 mi SE 3.5 mph - N/A   Clear
9:53 PM 72.0 °F - 63.0 °F 73% 30.09 in 10.0 mi SSE 3.5 mph - N/A   Mostly Cloudy
10:53 PM 72.0 °F - 64.0 °F 76% 30.09 in 10.0 mi SE 4.6 mph - N/A   Mostly Cloudy
11:53 PM 72.0 °F - 64.0 °F 76% 30.09 in 10.0 mi Calm Calm - N/A   Overcast